Shreveport, LA

8:07 PM CDT on March 27, 2017 (GMT -0500)
Shreveport Regional

Weather History for KSHV - May, 2014

Change the Weather History Date:

Friday, May 2, 2014

  Actual Average Record
Temperature  
Mean Temperature 64 °F 70 °F  
Max Temperature 80 °F 81 °F 94 °F (1943)
Min Temperature 47 °F 59 °F 44 °F (1918)
Degree Days  
Heating Degree Days 1 1  
Month to date heating degree days 9 2  
Since 1 July heating degree days 2552 2221  
Cooling Degree Days 0 5  
Month to date cooling degree days 0 10  
Year to date cooling degree days 121 145  
Growing Degree Days 13 (Base 50)    
Moisture  
Dew Point 43 °F    
Average Humidity 55    
Maximum Humidity 86    
Minimum Humidity 23    
Precipitation  
Precipitation 0.00 in 0.16 in 2.46 in (1944)
Month to date precipitation 0.00 0.32  
Year to date precipitation 11.55 17.60  
Snow  
Snow 0.00 in - - ()
Month to date snowfall 0.0  
Since 1 July snowfall 1.0  
Snow Depth 0.00 in    
Sea Level Pressure  
Sea Level Pressure 29.99 in    
Wind  
Wind Speed 5 mph (WSW)    
Max Wind Speed 16 mph    
Max Gust Speed 24 mph    
Visibility 10 miles    
Events      
T = Trace of Precipitation, MM = Missing Value Source: NWS Daily Summary

Daily Weather History Graph

Daily Weather History Graph

Search for Another Location

Airport or City:

Trip Planner

Search our weather history database for the weather conditions in past years. The results will help you decide how hot, cold, wet, or windy it might be!

Date:

Astronomy

May. 02, 2014 Rise Set
Actual Time 6:27 AM CDT 7:57 PM CDT
Civil Twilight 6:01 AM CDT 8:23 PM CDT
Nautical Twilight 5:30 AM CDT 8:54 PM CDT
Astronomical Twilight 4:57 AM CDT 9:27 PM CDT
Moon 9:09 AM CDT (5/2) 11:17 PM CDT (5/2)
Length of Visible Light 14h 22m
Length of Day
13h 29m
Waxing Crescent, 12% of the Moon is Illuminated
May 2
Waxing Crescent
May 6
First Quarter
May 14
Full
May 21
Last Quarter
May 28
New

Hourly Weather History & Observations

Time (CDT) Temp. Dew Point Humidity Pressure Visibility Wind Dir Wind Speed Gust Speed Precip Events Conditions
12:56 AM 52.0 °F 45.0 °F 77% 30.04 in 10.0 mi Calm Calm - N/A   Mostly Cloudy
1:56 AM 54.0 °F 44.1 °F 69% 30.03 in 10.0 mi Calm Calm - N/A   Mostly Cloudy
2:56 AM 53.1 °F 45.0 °F 74% 30.01 in 10.0 mi Calm Calm - N/A   Mostly Cloudy
3:56 AM 52.0 °F 46.0 °F 80% 30.00 in 10.0 mi Calm Calm - N/A   Mostly Cloudy
4:56 AM 50.0 °F 44.1 °F 80% 30.00 in 10.0 mi WSW 3.5 mph - N/A   Mostly Cloudy
5:56 AM 48.9 °F 44.1 °F 83% 30.02 in 10.0 mi SE 3.5 mph - N/A   Mostly Cloudy
6:56 AM 50.0 °F 44.1 °F 80% 30.04 in 10.0 mi Calm Calm - N/A   Mostly Cloudy
7:56 AM 55.0 °F 48.0 °F 77% 30.04 in 10.0 mi Calm Calm - N/A   Mostly Cloudy
8:56 AM 63.0 °F 44.1 °F 50% 30.05 in 10.0 mi South 3.5 mph - N/A   Mostly Cloudy
9:56 AM 68.0 °F 45.0 °F 43% 30.05 in 10.0 mi SSW 4.6 mph - N/A   Scattered Clouds
10:56 AM 72.0 °F 42.1 °F 34% 30.05 in 10.0 mi SSW 8.1 mph 17.3 mph N/A   Scattered Clouds
11:56 AM 73.4 °F 37.4 °F 27% 30.04 in 10.0 mi West 8.1 mph - N/A   Scattered Clouds
12:56 PM 75.0 °F 37.9 °F 26% 30.00 in 10.0 mi WSW 15.0 mph - N/A   Scattered Clouds
1:56 PM 75.9 °F 39.9 °F 27% 29.97 in 10.0 mi WSW 5.8 mph - N/A   Scattered Clouds
2:56 PM 78.1 °F 37.9 °F 24% 29.95 in 10.0 mi WSW 12.7 mph 24.2 mph N/A   Scattered Clouds
3:56 PM 78.1 °F 37.0 °F 23% 29.93 in 10.0 mi WNW 11.5 mph - N/A   Mostly Cloudy
4:56 PM 79.0 °F 37.0 °F 22% 29.92 in 10.0 mi West 11.5 mph 20.7 mph N/A   Scattered Clouds
5:56 PM 78.1 °F 39.0 °F 25% 29.91 in 10.0 mi NNW 10.4 mph - N/A   Scattered Clouds
6:56 PM 75.9 °F 37.9 °F 25% 29.91 in 10.0 mi West 5.8 mph - N/A   Scattered Clouds
7:56 PM 70.0 °F 43.0 °F 38% 29.92 in 10.0 mi Calm Calm - N/A   Scattered Clouds
8:56 PM 61.0 °F 46.0 °F 58% 29.94 in 10.0 mi Calm Calm - N/A   Partly Cloudy
9:56 PM 57.0 °F 46.9 °F 69% 29.95 in 10.0 mi Calm Calm - N/A   Clear
10:56 PM 55.9 °F 46.0 °F 69% 29.97 in 10.0 mi Calm Calm - N/A   Clear
11:56 PM 55.9 °F 46.9 °F 72% 29.97 in 10.0 mi Calm Calm - N/A   Clear